Wind_Speed
47 45 41 44 46 47 47 43 43 46 47 48 49 47 44 43 45 49 51 54 57 61 59 63 64 68 67 71 75 76 76 74 67 71 63 65 67 67 67 68 71 71 71 72 73
44 43 43 44 45 44 44 45 47 48 48 49 51 49 49 47 48 52 54 58 63 62 65 71 77 77 76 78 77 81 82 76 74 69 66 66 67 72 69 70 74 73 74 75 76
45 47 49 49 51 49 52 51 50 50 51 51 53 56 56 58 57 60 64 67 69 74 78 78 80 76 76 75 78 83 81 79 73 70 67 68 69 72 71 71 73 73 77 78 81
52 54 55 57 56 55 57 55 54 53 55 58 59 61 63 64 66 66 69 70 76 76 72 75 73 72 74 79 79 84 80 72 70 67 68 68 70 73 70 73 74 76 79 76 78
58 59 59 58 58 59 60 61 61 63 65 67 67 67 68 69 71 73 75 75 72 78 76 71 73 74 77 80 82 81 70 65 66 63 67 67 69 73 74 72 75 74 75 81 81
62 62 62 62 64 65 67 67 66 68 69 71 74 75 75 78 76 76 75 74 78 76 74 71 76 78 78 80 82 73 63 60 63 65 62 60 61 65 72 72 73 76 79 84 82
68 69 69 70 71 72 71 71 73 73 72 74 75 77 80 77 78 78 79 80 78 77 77 76 79 79 81 81 74 63 56 58 59 59 55 57 58 62 69 70 77 78 76 78 79
76 77 78 77 77 80 80 76 77 78 78 80 81 82 81 81 79 81 82 80 80 78 82 83 84 80 86 77 65 58 58 57 55 53 51 54 57 59 64 70 71 70 77 78 79
83 84 84 85 85 86 86 85 84 84 83 86 85 84 86 87 84 83 83 80 83 85 89 90 86 83 83 68 58 56 54 51 50 52 52 51 54 54 60 62 65 70 75 76 80
88 89 89 90 88 89 88 88 91 90 90 90 90 92 91 91 84 79 79 84 86 90 94 95 88 79 79 61 54 52 49 48 48 47 47 49 48 46 53 59 64 67 70 74 79
92 91 91 92 92 92 93 94 94 95 95 96 97 94 86 83 81 82 82 83 93 95 97 91 85 82 71 55 51 48 45 45 43 38 41 42 43 47 53 58 64 70 73 74 77
92 91 91 90 91 94 94 94 93 92 90 92 95 85 87 86 87 87 89 96 99 102 94 81 80 78 61 51 46 43 42 38 33 32 34 38 41 42 42 46 55 61 67 70 75
86 89 92 93 94 93 91 90 90 92 90 86 92 92 94 94 95 97 97 100 101 95 75 70 72 67 53 47 40 39 36 31 25 28 33 33 34 39 44 51 57 61 68 74 78
94 93 95 94 93 93 93 94 95 97 93 92 101 103 103 103 101 103 105 101 89 71 66 63 62 55 46 43 34 32 28 26 26 30 32 34 40 44 48 52 55 61 67 70 79
101 103 101 98 97 96 97 99 100 103 103 99 102 107 110 106 105 101 87 78 68 62 61 56 53 44 41 37 31 27 27 28 27 31 37 41 41 44 48 53 57 61 68 75 77
108 109 109 107 104 104 104 105 107 106 109 110 109 112 111 107 102 87 70 59 60 55 55 48 41 38 37 32 28 26 28 29 33 37 41 41 41 45 50 54 60 65 71 73 73
115 115 116 115 115 112 113 110 110 109 110 110 114 108 97 93 82 67 56 51 54 49 47 40 35 34 32 29 30 29 30 33 37 41 41 42 44 46 50 56 61 66 71 69 64
125 119 120 121 123 118 117 116 115 109 106 103 90 82 75 75 63 58 46 46 45 42 39 34 34 31 28 29 33 30 32 34 37 42 43 44 44 46 49 55 59 62 62 60 55
117 119 116 112 109 104 104 101 98 97 86 80 76 70 67 64 55 49 42 39 39 38 33 31 30 27 26 29 34 33 31 33 38 42 42 41 42 46 48 51 54 56 54 51 47
105 106 100 101 99 96 88 84 79 73 64 59 62 59 60 55 48 42 40 35 36 32 29 27 28 25 25 29 32 34 33 35 38 39 38 39 43 45 48 48 49 49 47 44 41
94 92 93 91 83 80 77 72 68 64 59 52 53 54 54 48 43 38 36 33 33 28 25 25 25 24 26 30 32 34 34 34 36 34 36 40 43 47 46 46 47 46 44 40 35
91 86 83 83 78 73 70 64 59 56 52 49 49 48 47 42 40 37 32 30 29 25 26 25 22 24 26 30 32 33 35 35 35 34 37 42 42 42 41 43 43 42 39 37 26
80 79 77 75 70 67 64 60 53 49 45 44 43 43 41 39 37 33 31 28 27 27 26 22 21 23 26 29 31 33 35 36 37 38 38 37 36 36 38 39 41 38 36 30 20
76 73 73 71 68 65 61 56 49 47 44 42 39 37 38 36 34 32 30 28 28 27 24 20 20 23 25 26 28 30 33 34 33 31 31 31 30 33 33 37 37 34 31 23 13
72 69 67 67 65 63 59 53 46 43 41 39 38 35 36 35 32 29 29 28 27 24 22 20 20 22 24 25 25 26 26 26 26 26 26 26 28 27 31 35 32 32 27 15 8
67 64 65 62 59 57 53 49 47 43 41 38 36 35 33 31 29 27 27 26 24 23 21 20 21 21 23 24 25 24 25 25 23 23 23 23 22 24 30 31 29 29 22 9 10
61 59 56 57 55 52 50 45 43 42 40 38 35 34 32 29 27 27 26 25 24 23 20 20 22 21 22 24 24 23 22 20 21 20 21 18 19 23 28 28 26 26 17 6 13
Wind_Direction
296 298 301 301 302 301 301 301 302 302 301 300 299 298 296 295 297 299 301 300 301 300 298 299 300 301 300 300 301 299 300 292 285 275 271 269 262 261 257 258 256 255 257 259 259
292 294 296 299 300 294 298 300 301 301 300 300 297 294 294 293 293 294 298 300 303 301 299 300 302 301 302 299 299 297 296 290 282 273 270 267 263 260 259 255 254 253 257 257 259
292 294 296 296 297 294 295 295 296 295 296 297 294 295 295 293 294 295 298 298 300 300 300 300 300 300 299 297 294 295 293 288 283 273 266 263 260 255 254 251 252 254 257 261 259
290 293 293 296 294 292 292 290 293 295 294 294 293 292 292 292 291 291 293 295 297 301 300 300 303 302 299 298 294 295 290 284 278 270 263 264 260 252 247 246 247 250 257 265 266
288 289 289 289 290 292 292 293 292 294 295 295 294 295 296 295 293 295 293 295 298 299 301 300 302 303 298 299 295 296 288 281 275 266 262 263 259 251 245 243 245 248 255 257 262
284 286 287 289 290 290 291 291 291 291 292 294 293 295 295 295 296 297 294 294 298 303 304 303 307 305 302 302 300 295 287 281 274 266 265 263 258 250 244 241 245 248 250 255 260
283 285 286 287 286 287 287 287 290 289 291 295 296 296 294 296 298 298 297 299 301 303 309 308 309 307 306 304 300 293 288 282 275 272 269 265 257 248 243 244 244 248 253 256 260
282 282 283 284 285 286 287 287 287 288 290 293 296 296 296 298 298 299 299 299 303 306 308 308 309 309 311 303 299 290 287 279 274 270 265 261 255 249 247 246 248 251 257 257 260
281 282 283 285 284 285 286 286 286 287 289 292 294 295 296 296 297 297 297 301 302 307 309 310 311 308 312 302 297 292 284 279 274 272 266 259 253 251 248 247 248 248 255 260 261
280 281 284 285 285 286 286 286 288 289 288 288 291 291 292 295 293 297 297 299 304 305 306 306 309 307 311 300 295 289 282 277 273 270 265 256 250 248 247 248 250 252 257 263 266
280 281 284 285 286 286 286 287 285 287 288 288 289 288 292 292 292 294 298 302 305 304 304 304 304 309 307 298 293 286 282 276 269 265 260 255 250 250 252 254 254 255 261 267 271
279 280 281 281 283 285 286 286 287 287 289 290 289 289 292 292 295 298 301 303 304 305 301 301 303 306 301 296 289 286 277 267 260 253 251 252 253 257 259 260 260 260 265 269 271
278 280 280 282 284 285 284 286 287 289 287 286 286 290 292 294 297 300 302 304 304 301 296 299 302 303 297 291 286 281 270 265 257 256 255 255 257 257 256 259 263 266 267 270 274
277 280 280 281 281 282 284 283 284 284 286 284 287 289 291 295 297 299 299 300 300 293 295 298 299 297 291 285 282 275 266 256 247 249 256 255 253 257 262 267 270 271 274 276 277
276 278 279 279 279 280 281 282 283 284 286 286 288 288 291 293 295 298 299 298 290 290 293 296 296 288 284 279 275 267 255 248 249 253 253 253 260 268 269 271 274 277 279 283 289
276 277 278 278 277 278 278 280 281 282 284 288 289 290 290 292 295 297 295 290 281 286 290 293 288 282 276 270 266 258 254 256 253 252 253 258 262 268 272 275 281 284 287 292 295
274 277 278 277 277 278 277 278 281 283 284 287 289 290 290 292 293 295 291 279 277 284 288 289 281 276 267 260 255 258 257 260 259 257 258 262 267 271 276 281 285 290 294 296 301
273 273 277 278 280 279 280 281 280 283 285 288 288 289 289 290 291 292 282 273 279 284 283 282 276 267 258 252 250 256 255 260 264 265 268 272 277 283 286 288 294 295 297 303 310
277 277 278 280 282 283 285 283 283 283 285 284 284 283 285 285 286 285 272 272 280 280 280 277 266 257 251 246 247 251 255 260 262 266 273 279 283 285 292 296 300 300 302 310 317
277 280 279 281 281 283 285 286 284 284 285 284 277 276 280 283 280 278 272 277 279 274 277 269 260 253 243 239 241 247 255 256 259 266 277 281 285 292 299 303 303 306 313 319 327
280 281 280 280 282 282 282 283 282 281 281 278 276 274 276 275 273 267 269 273 271 271 269 261 256 250 239 234 236 242 250 258 263 272 279 283 291 297 303 307 308 312 321 327 336
276 278 279 279 280 281 280 281 281 279 279 274 271 269 269 270 266 267 270 270 269 270 263 258 251 247 240 235 239 243 249 257 266 273 279 287 294 301 308 309 310 320 326 334 337
274 276 277 278 278 279 279 278 278 276 274 270 264 262 264 263 261 262 265 264 265 263 259 255 247 244 239 235 239 244 250 257 265 273 281 287 299 305 312 311 314 327 331 336 345
272 273 275 276 276 276 275 275 273 273 269 265 260 257 255 256 256 260 261 258 257 256 253 251 244 241 239 237 238 244 250 257 264 273 282 295 302 311 309 312 320 329 340 338 3
269 270 273 273 274 274 272 270 269 266 262 259 255 251 248 248 252 255 253 250 250 250 247 247 244 239 240 238 236 240 249 256 266 278 286 295 305 307 310 314 329 334 345 347 35
266 268 269 270 270 270 267 268 265 258 254 253 248 243 239 243 245 245 244 244 245 244 242 241 240 237 236 238 239 244 252 261 271 276 287 301 300 309 314 318 335 340 349 4 86
262 266 266 266 265 262 264 261 257 251 245 242 238 235 234 237 236 235 233 236 239 237 237 236 233 233 234 236 238 245 253 262 268 279 292 292 303 313 316 324 338 345 352 30 111
Height
10792 10789 10786 10783 10780 10777 10774 10771 10768 10765 10762 10758 10755 10752 10749 10746 10743 10739 10735 10731 10727 10723 10719 10715 10711 10706 10701 10694 10688 10682 10682 10676 10673 10666 10669 10667 10667 10667 10668 10671 10670 10671 10673 10675 10675
10784 10781 10778 10775 10772 10769 10766 10763 10759 10755 10752 10749 10745 10741 10738 10735 10732 10728 10725 10720 10716 10711 10707 10702 10696 10690 10684 10677 10671 10663 10658 10656 10650 10648 10647 10647 10647 10650 10649 10652 10652 10654 10655 10659 10659
10774 10772 10769 10765 10762 10759 10756 10753 10750 10746 10741 10738 10734 10731 10728 10724 10722 10717 10713 10709 10704 10698 10693 10687 10680 10673 10666 10658 10649 10643 10637 10629 10629 10627 10625 10624 10625 10627 10629 10633 10636 10637 10638 10641 10645
10765 10762 10759 10756 10752 10749 10745 10742 10739 10735 10731 10727 10723 10720 10715 10711 10709 10706 10700 10695 10690 10684 10678 10671 10663 10656 10647 10638 10629 10624 10612 10608 10605 10603 10604 10604 10603 10606 10608 10612 10615 10619 10623 10626 10626
10754 10751 10749 10745 10741 10738 10735 10732 10727 10723 10718 10714 10710 10706 10703 10698 10694 10691 10686 10681 10674 10669 10662 10655 10646 10638 10628 10618 10609 10601 10592 10587 10584 10583 10583 10582 10582 10585 10588 10595 10597 10603 10608 10605 10606
10741 10739 10737 10733 10730 10726 10723 10718 10714 10710 10705 10701 10696 10693 10688 10684 10679 10674 10669 10664 10659 10652 10644 10636 10628 10620 10610 10599 10590 10579 10573 10568 10566 10563 10563 10562 10565 10570 10574 10577 10583 10586 10587 10588 10590
10726 10724 10723 10720 10716 10712 10710 10706 10701 10697 10692 10688 10682 10678 10671 10668 10664 10658 10651 10646 10641 10636 10628 10619 10611 10600 10588 10579 10570 10562 10557 10555 10552 10550 10550 10548 10550 10553 10559 10563 10566 10568 10572 10572 10571
10712 10709 10707 10704 10701 10696 10694 10691 10686 10682 10678 10672 10667 10663 10656 10652 10648 10641 10635 10630 10623 10617 10610 10602 10593 10583 10571 10559 10553 10546 10543 10538 10535 10534 10533 10535 10537 10539 10545 10548 10552 10556 10556 10556 10554
10697 10693 10691 10688 10685 10680 10677 10675 10670 10666 10662 10655 10649 10645 10644 10635 10631 10626 10620 10613 10605 10597 10590 10583 10575 10563 10554 10543 10538 10532 10528 10523 10524 10521 10521 10524 10525 10528 10532 10535 10539 10541 10542 10541 10539
10679 10676 10674 10671 10668 10664 10659 10656 10652 10649 10644 10637 10633 10628 10628 10621 10616 10611 10604 10597 10590 10580 10573 10567 10560 10550 10538 10529 10524 10520 10514 10511 10511 10509 10511 10513 10515 10519 10519 10522 10526 10529 10528 10526 10523
10659 10657 10654 10651 10647 10645 10640 10637 10634 10631 10623 10618 10613 10611 10608 10604 10599 10593 10588 10580 10572 10563 10554 10549 10544 10534 10525 10517 10512 10508 10504 10501 10502 10501 10503 10505 10505 10508 10511 10514 10516 10516 10515 10513 10506
10639 10637 10634 10631 10627 10624 10620 10615 10612 10608 10612 10603 10591 10592 10587 10584 10582 10577 10571 10564 10554 10545 10535 10532 10526 10519 10512 10506 10502 10498 10495 10493 10493 10493 10495 10497 10499 10501 10504 10505 10503 10504 10503 10498 10491
10618 10615 10612 10611 10607 10603 10600 10594 10591 10585 10592 10590 10574 10572 10567 10565 10562 10559 10551 10544 10535 10523 10518 10516 10512 10505 10499 10496 10493 10489 10487 10487 10488 10490 10490 10492 10493 10494 10494 10494 10493 10494 10489 10484 10477
10596 10593 10589 10588 10585 10582 10579 10573 10571 10564 10568 10570 10557 10550 10546 10545 10544 10540 10534 10526 10516 10504 10504 10503 10497 10492 10489 10486 10484 10483 10483 10483 10482 10483 10485 10486 10485 10486 10486 10484 10483 10480 10475 10468 10458
10572 10569 10565 10563 10563 10559 10555 10551 10550 10544 10542 10547 10538 10528 10522 10525 10525 10520 10514 10507 10497 10490 10489 10488 10483 10481 10480 10477 10477 10477 10477 10476 10477 10478 10477 10478 10480 10478 10476 10473 10471 10468 10460 10451 10443
10547 10545 10542 10540 10539 10540 10532 10530 10527 10525 10522 10518 10513 10506 10501 10499 10499 10501 10495 10490 10481 10477 10476 10475 10472 10471 10471 10469 10470 10470 10471 10471 10470 10470 10471 10473 10473 10471 10469 10466 10461 10455 10447 10437 10426
10519 10520 10517 10513 10513 10513 10509 10507 10508 10505 10503 10499 10490 10480 10479 10479 10477 10479 10477 10471 10467 10465 10464 10462 10462 10462 10462 10462 10463 10464 10466 10466 10465 10465 10466 10466 10466 10466 10463 10460 10455 10444 10432 10422 10413
10489 10488 10490 10487 10484 10485 10483 10483 10483 10482 10483 10480 10469 10461 10460 10458 10461 10462 10460 10456 10455 10454 10453 10452 10451 10453 10454 10454 10457 10458 10459 10460 10459 10460 10461 10460 10460 10459 10456 10450 10444 10432 10421 10411 10404
10462 10463 10463 10459 10458 10459 10458 10457 10457 10456 10458 10457 10447 10445 10445 10443 10447 10448 10445 10444 10443 10443 10442 10443 10442 10444 10445 10448 10450 10452 10453 10454 10454 10454 10454 10455 10454 10449 10447 10441 10432 10421 10411 10402 10393
10437 10437 10435 10436 10437 10438 10437 10434 10435 10434 10436 10436 10427 10429 10429 10430 10432 10434 10431 10432 10432 10432 10433 10434 10435 10436 10438 10442 10445 10447 10448 10448 10448 10449 10450 10448 10446 10442 10437 10430 10421 10411 10403 10393 10384
10413 10413 10413 10413 10416 10417 10417 10415 10414 10416 10418 10418 10415 10413 10414 10416 10419 10420 10421 10422 10423 10422 10424 10426 10427 10429 10432 10436 10438 10441 10442 10443 10443 10445 10444 10441 10439 10434 10430 10422 10412 10403 10395 10386 10380
10392 10393 10391 10392 10396 10397 10398 10398 10396 10397 10402 10402 10401 10401 10403 10405 10406 10408 10410 10411 10413 10413 10416 10418 10420 10422 10426 10429 10432 10435 10437 10438 10439 10440 10438 10436 10434 10428 10424 10415 10405 10398 10391 10383 10377
10371 10372 10372 10372 10377 10377 10379 10380 10380 10382 10385 10387 10387 10388 10391 10393 10395 10398 10401 10403 10404 10406 10408 10410 10413 10416 10420 10423 10427 10430 10432 10433 10434 10434 10433 10430 10428 10423 10417 10408 10400 10394 10387 10380 10376
10350 10353 10352 10353 10357 10360 10362 10362 10366 10367 10370 10373 10374 10377 10380 10382 10385 10389 10392 10394 10397 10399 10401 10403 10407 10410 10414 10418 10421 10424 10425 10427 10429 10429 10428 10426 10423 10418 10412 10404 10396 10390 10384 10377 10376
10330 10333 10334 10335 10337 10341 10345 10346 10351 10354 10356 10359 10362 10366 10369 10372 10377 10381 10384 10387 10390 10392 10394 10398 10401 10405 10408 10412 10415 10418 10420 10422 10424 10424 10423 10422 10418 10415 10408 10400 10394 10388 10382 10378 10377
10310 10314 10316 10318 10321 10324 10326 10331 10335 10339 10343 10347 10352 10355 10358 10363 10369 10373 10376 10379 10383 10386 10389 10392 10396 10399 10403 10407 10410 10413 10415 10417 10419 10420 10418 10418 10414 10411 10405 10397 10392 10385 10381 10379 10380
10293 10295 10299 10300 10304 10307 10311 10316 10320 10325 10329 10335 10341 10344 10349 10356 10361 10366 10369 10373 10376 10380 10383 10387 10391 10395 10398 10402 10405 10408 10411 10413 10414 10415 10415 10414 10411 10408 10402 10395 10391 10385 10381 10379 10382